Location: St Paul
(33.9360°N, 83.4200°W)
Time: 20:22:05
(UTC-04:00)

Cosmos 2322 Rocket - Pass Details

Date: 06 October 2017
Orbit: 834 x 849 km, 71.0° (Epoch: 23 October)

Event Time Altitude Azimuth Distance (km) Brightness Sun altitude
Rises 22:08:35 0° 334° (NNW) 3,385 5.9 -37.1°
Reaches altitude 10° 22:11:04 10° 330° (NNW) 2,447 5.1 -37.6°
Enters shadow 22:13:27 26° 321° (NW) 1,606 4.0 -38.1°
